This is the latest recevied weather packets stored in our database for station/object HB9FHL-13. If no packets are shown the sender has not sent any weather packets the latest 1 day(s).
| Time | Temp. | Humidity | Pressure | Rain* | Wind** | Luminosity | Snow |
|---|---|---|---|---|---|---|---|
| 1778085032 | 10° C | - | 1020.1 hPa | 9.4 mm | - | - | - |
| 1778083818 | 9.44° C | - | 1002.7 hPa | 9.4 mm | - | - | - |
| 1778083217 | 10° C | - | 1009 hPa | 9.4 mm | - | - | - |
| 1778082015 | 9.44° C | - | 1009.5 hPa | 9.4 mm | - | - | - |
| 1778079308 | 9.44° C | - | 1008.8 hPa | 9.4 mm | - | - | - |
| 1778078404 | 10° C | - | 1008.4 hPa | 9.4 mm | - | - | - |
| 1778077803 | 10° C | - | 1006.7 hPa | 9.4 mm | - | - | - |
| 1778075996 | 9.44° C | - | 1012.5 hPa | 9.14 mm | - | - | - |
| 1778075395 | 8.89° C | - | 1000.1 hPa | 9.14 mm | - | - | - |
| 1778074492 | 9.44° C | - | 1009.1 hPa | 8.38 mm | - | - | - |
| 1778073891 | 10° C | - | 1010.1 hPa | 7.87 mm | - | - | - |
| 1778073290 | 10.56° C | - | 1005.8 hPa | 7.37 mm | - | - | - |
| 1778072387 | 8.33° C | - | 1017.3 hPa | 6.35 mm | - | - | - |
| 1778071185 | 10° C | - | 1004.4 hPa | 3.56 mm | - | - | - |
| 1778070885 | 10.56° C | - | 996.4 hPa | 3.05 mm | - | - | - |
| 1778069983 | 11.11° C | - | 1005.6 hPa | 0.76 mm | - | - | - |
| 1778069382 | 11.11° C | - | 1009.3 hPa | 0.51 mm | - | - | - |
| 1778068781 | 10.56° C | - | 1005.2 hPa | 0.25 mm | - | - | - |
| 1778068478 | 11.11° C | - | 1004.8 hPa | 0.25 mm | - | - | - |
| 1778067877 | 11.11° C | - | 1005.2 hPa | 0 mm | - | - | - |
| 1778067576 | 11.67° C | - | 1006.7 hPa | 0 mm | - | - | - |
| 1778064868 | 12.78° C | - | 1007.7 hPa | 0 mm | - | - | - |
| 1778063063 | 12.22° C | - | 1008.1 hPa | 0 mm | - | - | - |
| 1778062762 | 12.22° C | - | 1007.1 hPa | 0 mm | - | - | - |
| 1778062461 | 12.78° C | - | 1004.9 hPa | 0 mm | - | - | - |
* Rain since midnight (hover to see other rain measurements)
** Current wind speed in m/s (hover to see current wind gust speed)